Location: Navajo
(48.7922°N, 105.0603°W)
Time: 16:03:38
(UTC+00:00)

QB50P2 - Pass Details

Date: 26 June 2022
Orbit: 590 x 605 km, 97.9° (Epoch: 06 August)

Event Time Altitude Azimuth Distance (km) Brightness Sun altitude
Rises 07:16:19 0° 29° (NNE) 2,855 ? -17.8°
Reaches altitude 10° 07:19:17 10° 52° (NE) 1,949 ? -17.8°
Maximum altitude 07:21:52 16° 90° (E) 1,603 ? -17.7°
Enters shadow 07:23:55 12° 121° (ESE) 1,822 ? -17.7°
